Weather History for KMYR - September, 2014

Change the Weather History Date:

Thursday, September 11, 2014

  Actual Average Record
Temperature  
Mean Temperature 79 °F -  
Max Temperature 87 °F 80 °F 94 °F (2002)
Min Temperature 71 °F 65 °F 50 °F (1956)
Cooling Degree Days 14    
Growing Degree Days 29 (Base 50)    
Moisture  
Dew Point 71 °F    
Average Humidity 78    
Maximum Humidity 88    
Minimum Humidity 58    
Precipitation  
Precipitation 0.00 in - - ()
Sea Level Pressure  
Sea Level Pressure 30.03 in    
Wind  
Wind Speed 5 mph (SSW)    
Max Wind Speed 15 mph    
Max Gust Speed -    
Visibility 10 miles    
Events      
Averages and records for this station are not official NWS values.
T = Trace of Precipitation, MM = Missing Value Source: NWS Daily Summary

Daily Weather History Graph

Daily Weather History Graph

Search for Another Location

Airport or City:

Trip Planner

Search our weather history database for the weather conditions in past years. The results will help you decide how hot, cold, wet, or windy it might be!

Date:

Astronomy

Sep. 11, 2014 Rise Set
Actual Time 6:56 AM EDT 7:27 PM EDT
Civil Twilight 6:31 AM EDT 7:52 PM EDT
Nautical Twilight 6:01 AM EDT 8:22 PM EDT
Astronomical Twilight 5:31 AM EDT 8:52 PM EDT
Moon 9:16 PM EDT (9/11) 9:41 AM EDT (9/11)
Length of Visible Light 13h 21m
Length of Day
12h 31m
Waning Gibbous, 91% of the Moon is Illuminated
Sep 11
Waning Gibbous
Sep 15
Last Quarter
Sep 24
New
Oct 1
First Quarter
Oct 8
Full

Hourly Weather History & Observations

Time (EDT) Temp. Heat Index Dew Point Humidity Pressure Visibility Wind Dir Wind Speed Gust Speed Precip Events Conditions
12:15 AM 78.8 °F - 68.0 °F 69% 30.05 in 10.0 mi South 6.9 mph - N/A   Clear
12:35 AM 78.8 °F - 68.0 °F 69% 30.05 in 10.0 mi South 5.8 mph - N/A   Clear
12:55 AM 78.8 °F - 68.0 °F 69% 30.05 in 10.0 mi South 6.9 mph - N/A   Clear
1:15 AM 77.0 °F - 69.8 °F 78% 30.05 in 10.0 mi SSW 4.6 mph - N/A   Clear
1:35 AM 73.4 °F - 68.0 °F 83% 30.04 in 10.0 mi WSW 3.5 mph - N/A   Clear
1:55 AM 73.4 °F - 68.0 °F 83% 30.04 in 10.0 mi North 3.5 mph - N/A   Clear
2:15 AM 73.4 °F - 68.0 °F 83% 30.04 in 10.0 mi Calm Calm - N/A   Clear
2:35 AM 71.6 °F - 68.0 °F 88% 30.05 in 10.0 mi Calm Calm - N/A   Clear
2:55 AM 71.6 °F - 68.0 °F 88% 30.04 in 10.0 mi Calm Calm - N/A   Clear
3:15 AM 71.6 °F - 68.0 °F 88% 30.04 in 10.0 mi Calm Calm - N/A   Clear
3:35 AM 71.6 °F - 68.0 °F 88% 30.05 in 10.0 mi NNW 3.5 mph - N/A   Clear
3:55 AM 71.6 °F - 68.0 °F 88% 30.05 in 10.0 mi Calm Calm - N/A   Clear
4:15 AM 71.6 °F - 68.0 °F 88% 30.04 in 10.0 mi Calm Calm - N/A   Clear
4:35 AM 71.6 °F - 68.0 °F 88% 30.04 in 10.0 mi Calm Calm - N/A   Clear
4:55 AM 71.6 °F - 68.0 °F 88% 30.04 in 10.0 mi Calm Calm - N/A   Clear
5:15 AM 71.6 °F - 68.0 °F 88% 30.04 in 10.0 mi Calm Calm - N/A   Clear
5:35 AM 71.6 °F - 68.0 °F 88% 30.03 in 10.0 mi Calm Calm - N/A   Clear
5:55 AM 71.6 °F - 68.0 °F 88% 30.04 in 10.0 mi Calm Calm - N/A   Clear
6:47 AM 71.6 °F - 66.2 °F 83% 30.05 in 10.0 mi Calm Calm - N/A   Clear
7:47 AM 73.4 °F - 69.8 °F 88% 30.07 in 10.0 mi Calm Calm - N/A   Clear
8:45 AM 77.0 °F - 71.6 °F 83% 30.08 in 10.0 mi NNW 3.5 mph - N/A   Clear
9:45 AM 80.6 °F 84.6 °F 71.6 °F 74% 30.08 in 10.0 mi WSW 5.8 mph - N/A   Mostly Cloudy
10:50 AM 84.2 °F 90.9 °F 73.4 °F 70% 30.07 in 10.0 mi SW 6.9 mph - N/A   Mostly Cloudy
11:45 AM 87.8 °F 95.6 °F 73.4 °F 62% 30.06 in 10.0 mi West 6.9 mph - N/A   Mostly Cloudy
12:45 PM 87.8 °F 95.6 °F 73.4 °F 62% 30.04 in 10.0 mi South 12.7 mph - N/A   Mostly Cloudy
1:45 PM 87.8 °F 93.8 °F 71.6 °F 58% 30.02 in 10.0 mi South 10.4 mph - N/A   Mostly Cloudy
2:45 PM 86.0 °F 93.4 °F 73.4 °F 66% 30.00 in 10.0 mi South 11.5 mph - N/A   Mostly Cloudy
3:45 PM 87.8 °F 95.6 °F 73.4 °F 62% 29.98 in 10.0 mi SSW 12.7 mph - N/A   Scattered Clouds
4:45 PM 86.0 °F 93.4 °F 73.4 °F 66% 29.97 in 10.0 mi South 15.0 mph - N/A   Scattered Clouds
5:47 PM 84.2 °F 90.9 °F 73.4 °F 70% 29.97 in 10.0 mi South 15.0 mph - N/A   Scattered Clouds
6:45 PM 84.2 °F 90.9 °F 73.4 °F 70% 29.98 in 10.0 mi South 9.2 mph - N/A   Clear
7:45 PM 82.4 °F 88.2 °F 73.4 °F 74% 29.98 in 10.0 mi SSW 11.5 mph - N/A   Clear
8:45 PM 82.4 °F 88.2 °F 73.4 °F 74% 30.00 in 10.0 mi SSW 8.1 mph - N/A   Clear
9:45 PM 80.6 °F 85.4 °F 73.4 °F 79% 30.01 in 10.0 mi SSW 8.1 mph - N/A   Clear
10:55 PM 80.6 °F 85.4 °F 73.4 °F 79% 30.02 in 10.0 mi SW 4.6 mph - N/A   Clear
11:15 PM 80.6 °F 85.4 °F 73.4 °F 79% 30.02 in 10.0 mi SW 4.6 mph - N/A   Clear
11:35 PM 80.6 °F 85.4 °F 73.4 °F 79% 30.02 in 10.0 mi SW 4.6 mph - N/A   Clear
11:55 PM 80.6 °F 86.2 °F 75.2 °F 84% 30.02 in 10.0 mi SSW 4.6 mph - N/A   Clear